ONEWEB-0183, 48219

Orbit data source: Space-Track

ONEWEB-0183, 48219 is a payload satellite owned by One Web (NAA) (UK) in LEO that was launched on Sun, 25 Apr 2021 UTC via a SOYUZ-2-1B launch vehicle from the Vostochny Cosmodrome (VOSTO). Payload-class satellites include a variety of spacecraft equipped with specific instruments for various scientific and technological missions. These include communications satellites like Starlink; space stations such as the ISS; scientific satellites like the Hubble; Earth observation satellites from companies like Planet Labs, Umbra, and HawkEye 360; GPS; miniature CubeSats for education and research; and military/defense satellites.

Loading next visibility...
Identifier
48219, 2021-031K
Orbit
LEO
Country
Flag of UKUK
Related business
Manufacturer
One Web
Mission
Operational Commercial Communications
Bus & Motor
ARROW, Unknown motor
Mass
148 kg wet, ~140 kg dry
Launch date (UTC)
2021-04-25 (5 years ago)
Launch vehicle
SOYUZ-2-1B
Launch site
Vostochny Cosmodrome (VOSTO)
Object type
Payload
Rocket body
Debris
Shape & HBR
Trap Box + 2 Pan, 6.7 m
Radar Cross Section
3.464 m², Large (>1 m²)

Expand to show TLE details & history
Last TLE update: 9 hours ago

TLE from 9 hours ago
0 ONEWEB-0183
1 48219U 21031K   26095.27082682  .00000163  00000-0  40526-3 0  9998
2 48219  87.8938 304.2610 0001464  87.3860 272.7437 13.14503881238742
Epoch: 2026-04-05T06:29Z
TLE epoch observation values (Epoch: 2026-04-05T06:29:59.437Z)
Latitude
-0.00004°
Longitude
13.18469°
Altitude
1,208.627 km
Speed
7.25 km/s
True Right ascension
20h 17m 02s
True Declination
0° 00' 00"
Sunlit
Object was in daylight at epoch
Visualization orbit readout
Latitude
Unknown
Longitude
Unknown
Altitude
Unknown
Speed
Unknown
Apparent Right ascension
Unknown
Apparent Declination
Unknown
Sunlit
N/A
Visualization observer readout
Local Sidereal Time
21:32:00
Azimuth
Unknown
Elevation
Unknown
Doppler factor
Unknown
Orbital elements
Apogee altitude
1,204.01 km
Perigee altitude
1,201.79 km
Semi-major axis
7,581.037 km
Eccentricity
0.00015
Inclination
87.8938°
RAAN
304.261°
Arg. of periapsis
87.386°
True anomaly
272.72694°
Mean anomaly
272.7437°
Eccentric anomaly
272.73532°
Mean motion
3.28814 °/min
Orbital period
109.48 mins
BSTAR
0.00040526
Loading maneuver chart data...
Computing Atmospheric mass density...
Loading historical data...
Loading historical data...
Loading historical data...
Loading historical data...
Loading historical data...
Loading historical data...
Loading historical data...

Documentation

Showing up to 5 results
|